This demonstration page uses our WeatherBlox Daily Observations layout. Learn more.

Left ArrowRight Arrow

Hourly Observations for February 9, 2019

Temp ( °F °C ) Dew Point ( °F °C ) Humidity (%) Winds ( mph kmh ) Pressure ( in mb ) Visibility ( mi km ) Precip ( " mm )
12:53 am 00:53 Clear 18 -7.8 10 -12.2 71 71 NW 10 17 30.8 1043 10 16.0934 N/A
1:53 am 01:53 Clear 17 -8.3 8 -13.3 68 68 NW 8 13 30.81 1044 10 16.0934 N/A
2:53 am 02:53 Clear 16 -8.9 9 -12.8 74 74 NW 7 11 30.83 1044 10 16.0934 N/A
3:53 am 03:53 Clear 16 -8.9 8 -13.3 71 71 N 7 11 30.84 1044 10 16.0934 N/A
4:53 am 04:53 Clear 15 -9.4 8 -13.3 74 74 N 6 9 30.85 1045 10 16.0934 N/A
5:33 am 05:33 Mostly Cloudy 15 -9.4 8 -13.3 74 74 NNE 7 11 30.89 1046 10 16.0934 N/A
5:53 am 05:53 Cloudy 15 -9.4 8 -13.3 74 74 NNE 8 13 30.87 1045 10 16.0934 N/A
6:11 am 06:11 Partly Cloudy 15 -9.4 8 -13.3 74 74 N 7 11 30.9 1046 10 16.0934 N/A
6:53 am 06:53 Clear 14 -10 7 -13.9 73 73 N 3 6 30.88 1046 10 16.0934 N/A
7:53 am 07:53 Sunny 14 -10 8 -13.3 77 77 N N/A 30.9 1046 10 16.0934 N/A
8:53 am 08:53 Sunny 17 -8.3 8 -13.3 68 68 N 6 9 30.92 1047 10 16.0934 N/A
9:53 am 09:53 Sunny 19 -7.2 9 -12.8 65 65 ENE 7 11 30.93 1047 10 16.0934 N/A
10:53 am 10:53 Sunny 20 -6.7 9 -12.8 62 62 VRB 5 7 30.92 1047 10 16.0934 N/A
11:53 am 11:53 Sunny 22 -5.6 10 -12.2 60 60 ESE 5 7 30.91 1047 10 16.0934 N/A
12:53 pm 12:53 Sunny 24 -4.4 10 -12.2 55 55 SSE 5 7 30.89 1046 10 16.0934 N/A
1:53 pm 13:53 Sunny 26 -3.3 10 -12.2 51 51 SSE 5 7 30.84 1044 10 16.0934 N/A
2:53 pm 14:53 Sunny 28 -2.2 11 -11.7 49 49 VRB 6 9 30.81 1043 10 16.0934 N/A
3:53 pm 15:53 Sunny 29 -1.7 12 -11.1 49 49 E 7 11 30.78 1042 10 16.0934 N/A
4:53 pm 16:53 Sunny 30 -1.1 14 -10 51 51 E 7 11 30.76 1042 10 16.0934 N/A
5:53 pm 17:53 Sunny 28 -2.2 15 -9.4 58 58 E 6 9 30.77 1042 10 16.0934 N/A
6:53 pm 18:53 Clear 26 -3.3 16 -8.9 66 66 ENE 6 9 30.78 1042 10 16.0934 N/A
7:53 pm 19:53 Clear 25 -3.9 16 -8.9 69 69 ENE 9 15 30.76 1042 10 16.0934 N/A
8:53 pm 20:53 Clear 24 -4.4 16 -8.9 71 71 ENE 7 11 30.74 1041 10 16.0934 N/A
9:53 pm 21:53 Clear 23 -5 16 -8.9 74 74 E 5 7 30.73 1041 10 16.0934 N/A
10:53 pm 22:53 Clear 22 -5.6 15 -9.4 75 75 E 5 7 30.73 1041 10 16.0934 N/A
11:53 pm 23:53 Clear 20 -6.7 15 -9.4 81 81 E 5 7 30.69 1039 10 16.0934 N/A

Powered by AerisWeather